Location: Grange Rosano
(44.4500°N, 6.9667°E)
Time: 21:23:09
(UTC+00:00)

Cosmos 1025 Rocket - Pass Details

Date: 26 May 2022
Orbit: 593 x 618 km, 82.5° (Epoch: 01 July)

Event Time Altitude Azimuth Distance (km) Brightness Sun altitude
Exits shadow 00:47:11 45° 132° (SE) 830 3.5 -22.1°
Maximum altitude 00:47:59 52° 94° (E) 755 3.5 -22.0°
Drops below altitude 10° 00:52:11 10° 18° (NNE) 1,955 6.8 -21.8°
Sets 00:54:26 0° 14° (NNE) 2,859 8.0 -21.6°
